Location: Hancock Field Station
(44.9202°N, 120.4259°W)
Time: 11:58:20
(UTC-08:00)

Nadezhda 4 Rocket - Visible Passes

Search period start: 01 March 2017 00:00
Search period end: 11 March 2017 00:00
Orbit: 950 x 992 km, 82.9° (Epoch: 01 March)

Date Brightness Start Highest point End Pass type
(mag) Time Alt. Az. Time Alt. Az. Time Alt. Az.
07 Mar 6.7 23:48:37 10° N 23:48:43 10° N 23:48:43 10° N visible
09 Mar 6.7 00:12:24 10° N 00:12:42 12° N 00:12:42 12° N visible
10 Mar 6.7 00:36:25 10° N 00:36:43 11° N 00:36:43 11° N visible
10 Mar 6.6 23:15:51 10° NNE 23:16:09 11° NNE 23:16:09 11° NNE visible
